Tracking 17154 objects as of 3-August-2015
HD Live streaming from Space Station

COSMOS 963

Track COSMOS 963 now!
10-day predictions
COSMOS 963 is classified as:


NORAD ID: 10491
Int'l Code: 1977-109A
Perigee: 1,189.0 km
Apogee: 1,213.4 km
Inclination: 82.9 °
Period: 109.3 minutes
Semi major axis: 7572 km
RCS: 3.0327 m2 (large)
Launch date: November 24, 1977
Source: Commonwealth of Independent States (former USSR) (CIS)
Your satellite tracking list
Your tracking list is empty





NASA's NSSDC Master Catalog

Two Line Element Set (TLE):
1 10491U 77109A   15213.55385587  .00000082  00000-0  17773-3 0  9995
2 10491 082.9284 058.3550 0016099 027.5548 000.1962 13.17560683812809

Source of the keplerian elements: AFSPC

N2YO: 261